Location: *
(55.6049°S, 142.1985°W)
Time: 23:13:38
(UTC+00:00)

USA 281 - Pass Details

Date: 12 May 2021
Orbit: 1078 x 1081 km, 106.0° (Epoch: 18 June)

Event Time Altitude Azimuth Distance (km) Brightness Sun altitude
Rises 13:14:20 0° 151° (SSE) 3,917 6.7 -33.3°
Reaches altitude 10° 13:16:52 10° 149° (SSE) 2,956 6.0 -32.9°
Maximum altitude 13:23:33 80° 61° (ENE) 1,113 3.2 -32.0°
Enters shadow 13:23:40 80° 45° (NE) 1,114 3.2 -32.0°
